[[{"header":{"parameterUnit":"m.s-1","parameterCategory":1,"la1":30.2991,"la2":30.254,"lo1":-89.0895,"lo2":-89.0444,"dy":0.0017,"dx":0.0017,"nx":28,"ny":28,"refTime":"2024-06-07T09:00:00:Z","depth":0,"parameterNumber":2,"parameterNumberName":"U-component_of_WINDS"},"data":[0,0,0,0,0,0,0,0,0,0,0,0,0,0,0,0,0,0,0,0,0,0,0,0,0,0,0,0,0,0,0,0,0,0,0,0,0,0,0,0,0,0,0,0,0,0,0,0,0,0,0,0,0,0,0,0,0,0,0.2814,0.2815,0,0.2838,0.2839,0.2839,0.2856,0.2856,0.2856,0.2856,0.288,0.288,0.2881,0,0,0,0,0,0,0,0,0,0,0,0,0,0.2782,0.2782,0.2814,0.2815,0.2815,0.2838,0.2839,0.2839,0.2856,0.2856,0.2856,0.2856,0.288,0.288,0.2881,0,0,0,0,0,0,0,0,0,0,0,0,0,0.28,0.2782,0.2814,0.2826,0.2827,0.2838,0.2839,0.2839,0.2856,0.2856,0.2856,0.2856,0.288,0.288,0.2881,0.2882,0,0,0.2883,0.2884,0,0,0,0,0,0,0,0,0.2799,0.2801,0.2824,0.2825,0.2827,0.2844,0.2836,0.2853,0.2856,0.2845,0.2856,0.2856,0.2868,0.287,0.2874,0.2883,0.2884,0.2883,0.2884,0.2884,0.2884,0,0,0,0,0,0,0,0.2797,0.28,0.2824,0.2824,0.2826,0.283,0.2833,0.2839,0.2855,0.2846,0.2847,0.285,0.2869,0.2873,0.2874,0.2884,0.2883,0.2884,0.2885,0.2885,0.2895,0.2894,0,0,0,0,0,0,0.2794,0.2799,0.2823,0.2825,0.2813,0.283,0.2833,0.2838,0.2855,0.2858,0.285,0.2851,0.2871,0.2873,0.2875,0.2877,0.2884,0.2885,0.2885,0.2895,0.2894,0.2894,0,0,0,0,0,0,0.2794,0.2797,0.2822,0.2812,0.2816,0.2831,0.2836,0.2839,0.2843,0.2858,0.2861,0.2851,0.2872,0.2874,0.288,0.2878,0.2885,0.2886,0.2895,0.2895,0.2894,0.288,0,0,0,0,0,0,0.2793,0.2796,0.2797,0.2812,0.2816,0.2827,0.2836,0.2839,0.2844,0.2846,0.286,0.2862,0.2872,0.2879,0.2881,0.2879,0.2887,0.2895,0.2895,0.2894,0.288,0.2879,0.2878,0,0,0,0,0,0.2792,0.2792,0.2797,0.28,0.2817,0.2827,0.2829,0.284,0.2844,0.2845,0.2854,0.2862,0.2878,0.2879,0.2881,0.288,0.2895,0.2895,0.2894,0.2881,0.2879,0.2878,0,0,0,0,0,0,0.2776,0.2794,0.28,0.2805,0.2814,0.2829,0.2831,0.2838,0.2846,0.2847,0.286,0.2863,0.2867,0.2874,0.2876,0.2881,0.2887,0.2887,0.2876,0.2875,0.2873,0.2871,0.2887,0,0,0,0,0,0.2773,0.2779,0.2795,0.2798,0.2802,0.2815,0.282,0.2828,0.2838,0.2841,0.2851,0.286,0.2867,0.2871,0.2879,0.2882,0.2884,0.2882,0.288,0.2879,0.2879,0.288,0.2879,0.2893,0.2893,0.2893,0,0,0.2767,0.2778,0.2781,0.2795,0.2803,0.2808,0.2819,0.2824,0.2829,0.2842,0.2848,0.2856,0.2867,0.2871,0.2873,0.2877,0.2875,0.2878,0.2877,0.2878,0.2879,0.2878,0.2877,0.2892,0.2893,0.2893,0,0,0.2759,0.2768,0.2772,0.2779,0.2791,0.28,0.2801,0.2815,0.282,0.2827,0.2837,0.2842,0.2854,0.2861,0.2866,0.286,0.2868,0.2862,0.2855,0.2856,0.2855,0.2854,0.2851,0.285,0.2862,0.2862,0.2862,0,0.275,0.276,0.2772,0.2777,0.2783,0.2796,0.2799,0.2805,0.2819,0.2822,0.2826,0.2841,0.2849,0.2855,0.2853,0.2857,0.2858,0.2861,0.2854,0.2853,0.2853,0.285,0.2849,0.2861,0.2861,0.2862,0.2862,0,0.2748,0.2754,0.2755,0.2768,0.2774,0.2778,0.279,0.2795,0.2802,0.281,0.2816,0.2826,0.2835,0.2838,0.2845,0.2844,0.2846,0.2852,0.2858,0.285,0.2848,0.2847,0.286,0.2861,0.2861,0.2861,0,0,0.2731,0.275,0.275,0.2756,0.277,0.2775,0.2779,0.2788,0.2791,0.28,0.2804,0.2813,0.2819,0.2825,0.2833,0.2834,0.2828,0.284,0.284,0.2837,0.2827,0.2822,0.2821,0.2833,0.2833,0.2833,0.2826,0,0.2725,0.2733,0.2744,0.2749,0.2755,0.2767,0.277,0.2779,0.2787,0.2792,0.2801,0.2807,0.2814,0.2818,0.2819,0.2828,0.2826,0.2829,0.2836,0.2836,0.2832,0.282,0.2814,0.2807,0.2825,0.2825,0.2825,0,0.2719,0.2727,0.2732,0.2745,0.2748,0.2751,0.276,0.2765,0.2775,0.278,0.2787,0.2795,0.28,0.2806,0.2812,0.2814,0.2818,0.2822,0.2822,0.2823,0.2829,0.2819,0.2805,0.2804,0.2824,0.2824,0.2824,0,0.2705,0.2717,0.2722,0.2726,0.2742,0.2743,0.275,0.276,0.2765,0.2772,0.2775,0.2784,0.2788,0.2794,0.2804,0.2808,0.2809,0.2816,0.2813,0.2813,0.2812,0.2812,0.2798,0.2816,0.2816,0.2816,0.2816,0,0.2697,0.2699,0.2716,0.2718,0.2721,0.2734,0.2736,0.2744,0.2753,0.2757,0.2768,0.2771,0.2785,0.279,0.2798,0.2802,0.2804,0.2808,0.281,0.2806,0.2806,0.2808,0.2809,0.2815,0.2815,0.2815,0.2816,0,0.2681,0.2693,0.2698,0.2712,0.2716,0.2717,0.2729,0.2732,0.274,0.2745,0.2747,0.276,0.2766,0.2777,0.2787,0.2793,0.2794,0.2798,0.2791,0.2792,0.2788,0.2788,0.2774,0.2773,0.2792,0.2792,0.2792,0,0.2675,0.2677,0.2691,0.2695,0.2701,0.2707,0.2711,0.2723,0.2728,0.2739,0.274,0.2747,0.2754,0.2763,0.2773,0.278,0.2784,0.2779,0.2785,0.2782,0.2783,0.2783,0.2783,0.2777,0.2777,0.2777,0.2777,0,0.2662,0.2668,0.2674,0.2682,0.2688,0.2695,0.2702,0.2704,0.2718,0.2722,0.2729,0.2734,0.2744,0.275,0.2759,0.2765,0.2773,0.2775,0.2774,0.277,0.2766,0.2767,0.2786,0.2775,0.2775,0.2775,0.2775,0.2775,0.2651,0.2653,0.2663,0.267,0.2677,0.2683,0.2687,0.2695,0.2701,0.271,0.2717,0.2722,0.2732,0.2744,0.275,0.2754,0.2758,0.2758,0.2757,0.2757,0.2755,0.2766,0.2756,0.2756,0.2756,0.2756,0.2756,0,0.2638,0.2645,0.2651,0.2661,0.2666,0.2673,0.2682,0.2686,0.2691,0.2699,0.2705,0.2712,0.2718,0.2729,0.2736,0.2738,0.2741,0.2739,0.2739,0.274,0.2752,0.2751,0.2736,0.2736,0.2736,0.2736,0.2736,0.2736,0.2632,0.2636,0.2642,0.2649,0.2656,0.2662,0.2666,0.2672,0.2679,0.2686,0.2692,0.2699,0.2707,0.2715,0.2721,0.2724,0.2726,0.2722,0.2726,0.2737,0.2739,0.2741,0.274,0.2723,0.2723,0.2714,0.2714,0.2714]},{"header":{"parameterUnit":"m.s-1","parameterCategory":1,"la1":30.2991,"la2":30.254,"lo1":-89.0895,"lo2":-89.0444,"dy":0.0017,"dx":0.0017,"nx":28,"ny":28,"refTime":"2024-06-07T09:00:00:Z","depth":0,"parameterNumber":3,"parameterNumberName":"V-component_of_WINDS"},"data":[0,0,0,0,0,0,0,0,0,0,0,0,0,0,0,0,0,0,0,0,0,0,0,0,0,0,0,0,0,0,0,0,0,0,0,0,0,0,0,0,0,0,0,0,0,0,0,0,0,0,0,0,0,0,0,0,0,0,0.3295,0.3294,0,0.3271,0.3271,0.327,0.3225,0.3224,0.3223,0.3222,0.3199,0.3199,0.32,0,0,0,0,0,0,0,0,0,0,0,0,0,0.3302,0.3302,0.3295,0.3294,0.3294,0.3271,0.3271,0.327,0.3225,0.3224,0.3223,0.3222,0.3199,0.3199,0.32,0,0,0,0,0,0,0,0,0,0,0,0,0,0.329,0.3302,0.3295,0.3269,0.3266,0.3271,0.3271,0.327,0.3225,0.3224,0.3222,0.3221,0.3199,0.3199,0.32,0.3229,0,0,0.3201,0.3201,0,0,0,0,0,0,0,0,0.3291,0.329,0.3273,0.327,0.3267,0.3249,0.3265,0.3256,0.3225,0.3241,0.3222,0.322,0.3217,0.3216,0.3214,0.3228,0.3227,0.3201,0.3201,0.3201,0.3201,0,0,0,0,0,0,0,0.3292,0.3291,0.3285,0.3273,0.3269,0.3258,0.3255,0.3263,0.3237,0.3239,0.3236,0.3234,0.3215,0.3214,0.3214,0.3226,0.3201,0.3201,0.3201,0.3201,0.3262,0.3263,0,0,0,0,0,0,0.3296,0.3292,0.3286,0.3285,0.3276,0.3259,0.3256,0.3257,0.3237,0.3232,0.3235,0.3232,0.3214,0.3213,0.3213,0.3245,0.3201,0.3201,0.3202,0.326,0.3262,0.3264,0,0,0,0,0,0,0.3297,0.3296,0.3287,0.3287,0.3285,0.3261,0.3262,0.3257,0.3255,0.3233,0.3228,0.3238,0.3213,0.3212,0.3225,0.3244,0.3202,0.3202,0.3259,0.3261,0.3263,0.3311,0,0,0,0,0,0,0.3297,0.3297,0.3307,0.3288,0.3285,0.33,0.3263,0.3257,0.3256,0.3252,0.3235,0.3231,0.3212,0.3225,0.3225,0.3243,0.3202,0.3257,0.326,0.3262,0.3307,0.3314,0.332,0,0,0,0,0,0.3297,0.3322,0.3308,0.3308,0.3298,0.3301,0.3299,0.3276,0.3258,0.3268,0.3254,0.3232,0.3241,0.3226,0.3227,0.3245,0.3256,0.3259,0.3262,0.3304,0.3313,0.332,0,0,0,0,0,0,0.3345,0.3319,0.3303,0.3322,0.3314,0.3293,0.3306,0.3286,0.3283,0.328,0.3251,0.3248,0.3265,0.3256,0.324,0.3272,0.3245,0.3248,0.3277,0.3285,0.3291,0.3293,0.3202,0,0,0,0,0,0.3357,0.3361,0.3339,0.3358,0.3354,0.3331,0.3331,0.3314,0.3305,0.3301,0.3288,0.328,0.3281,0.3282,0.3282,0.3306,0.3301,0.3318,0.3325,0.333,0.3333,0.3345,0.3352,0.3274,0.3274,0.3274,0,0,0.3384,0.337,0.3374,0.3367,0.3358,0.3363,0.3328,0.3335,0.3339,0.3302,0.3313,0.3303,0.3292,0.3311,0.3318,0.3304,0.3354,0.3334,0.3338,0.3339,0.3349,0.3357,0.3363,0.3276,0.3276,0.3275,0,0,0.3434,0.3424,0.3438,0.3431,0.3418,0.3402,0.3406,0.3388,0.3379,0.339,0.3363,0.3367,0.3369,0.3363,0.336,0.3407,0.3387,0.3408,0.3441,0.3453,0.3459,0.3464,0.3481,0.3488,0.3411,0.3411,0.3411,0,0.3468,0.3474,0.3448,0.3457,0.3454,0.3421,0.3436,0.3429,0.3418,0.3417,0.3401,0.3404,0.3394,0.341,0.3422,0.342,0.3424,0.341,0.346,0.3465,0.347,0.3486,0.3492,0.3414,0.3414,0.3413,0.3413,0,0.3517,0.3522,0.3535,0.3524,0.3523,0.3535,0.3511,0.3513,0.3496,0.3482,0.3493,0.348,0.3477,0.3479,0.3463,0.3493,0.3485,0.3465,0.3437,0.348,0.3495,0.3501,0.3418,0.3417,0.3416,0.3415,0,0,0.3597,0.3571,0.3577,0.3571,0.3555,0.3558,0.3568,0.3564,0.3567,0.356,0.3567,0.357,0.3552,0.3548,0.3531,0.3541,0.3579,0.352,0.3519,0.3532,0.3612,0.3627,0.3635,0.3565,0.3566,0.3567,0.3613,0,0.3644,0.3659,0.3636,0.3657,0.3661,0.3629,0.3638,0.3629,0.3616,0.3618,0.3603,0.3606,0.3581,0.3579,0.3587,0.3573,0.3595,0.3569,0.3573,0.3573,0.3577,0.3642,0.3658,0.3702,0.3618,0.3619,0.362,0,0.3701,0.3696,0.3717,0.3699,0.37,0.3708,0.3703,0.3705,0.3694,0.3684,0.368,0.3659,0.3667,0.364,0.3652,0.3635,0.3635,0.3628,0.3629,0.3629,0.36,0.3644,0.3716,0.3722,0.3629,0.3628,0.3627,0,0.3757,0.3756,0.3769,0.3765,0.3744,0.3751,0.3742,0.373,0.3729,0.3724,0.3723,0.372,0.3718,0.3716,0.3695,0.3677,0.371,0.3681,0.3702,0.3702,0.371,0.371,0.3783,0.371,0.371,0.371,0.371,0,0.3812,0.3827,0.3794,0.3801,0.3816,0.379,0.3805,0.3794,0.3783,0.3788,0.376,0.3766,0.3737,0.374,0.3723,0.3735,0.3735,0.3727,0.3722,0.373,0.3731,0.373,0.3726,0.3711,0.3711,0.3711,0.371,0,0.3878,0.3857,0.3868,0.3847,0.3842,0.3854,0.3836,0.3843,0.3828,0.3835,0.3835,0.3811,0.3813,0.3791,0.3788,0.3777,0.3797,0.3787,0.3801,0.3798,0.382,0.3818,0.3895,0.3904,0.3825,0.3826,0.3826,0,0.3915,0.3925,0.3905,0.3906,0.3899,0.3901,0.39,0.3874,0.3874,0.3862,0.387,0.3869,0.3867,0.3871,0.3854,0.3851,0.3841,0.3868,0.3841,0.3848,0.3842,0.3842,0.3843,0.3874,0.3875,0.3876,0.3877,0,0.3982,0.3971,0.397,0.3965,0.3964,0.396,0.3953,0.3956,0.3927,0.3929,0.3929,0.3928,0.3924,0.3924,0.3918,0.391,0.3889,0.3885,0.389,0.3898,0.3905,0.3902,0.3817,0.3884,0.3883,0.3883,0.3882,0.3882,0.4035,0.4042,0.4029,0.4029,0.4021,0.4015,0.402,0.4006,0.4006,0.4001,0.3985,0.3989,0.3978,0.3968,0.3961,0.3964,0.3951,0.3958,0.3959,0.3962,0.3966,0.3905,0.3963,0.3963,0.3962,0.3962,0.3962,0,0.4101,0.4091,0.4091,0.4082,0.4082,0.4061,0.4053,0.4054,0.4057,0.4048,0.4047,0.4048,0.4047,0.403,0.4027,0.4032,0.4022,0.4032,0.4032,0.403,0.3978,0.3974,0.404,0.404,0.404,0.404,0.404,0.404,0.4135,0.4146,0.4134,0.4141,0.4131,0.4133,0.413,0.4125,0.4118,0.412,0.4119,0.4108,0.4095,0.4091,0.409,0.4085,0.4085,0.4098,0.409,0.4042,0.4034,0.4027,0.4023,0.4099,0.4099,0.4142,0.4143,0.4143]}]]